Content
SEND FEEDBACK

Daily
Averages
Monthly
Summary
United States of America

AGAT, GUAM


Home > North America > United States > Guam
Elevation: 364 feet     Latitude: 13 33N     Longitude: 144 50E

WEATHER
 
SELECT A DAY
Number of Records: 215,487;   Date Range: 1/1/95 - 12/16/14
 
SHARE

PRINT THIS DATA

[ ← Previous Day ]
WEATHER ALMANAC - AUGUST 31, 2013
[ Next Day → ]
[ °C ]   °F
Weather ElementAverageHighLow
Temperature84.5 °F89.6 °F (2:15 pm)78.1 °F (3:54 am)
Dewpoint75.6 °F78.8 °F (11:32 am)73 °F (3:54 pm)
Humidity75.2 %93 % (4:54 am)61 % (3:54 pm)
Barometer29.85 in29.90 in (8:41 am)29.80 in (3:54 pm)
Wind Speed4.4 mph8.1 mph (2:15 pm)
Weather ElementAverage
Visibility10 mi
Wind DirectionENE (82.8 °)

Weather ElementTotal
Precipitation---
Cooling Degree Days18.9 (Base 65)
Growing Degree Days33.9 (Base 50)
Averaged from 29 records on August 31, 2013
WEATHER CONDITIONS BREAKOUT
WIND DIRECTION BREAKOUT
WEATHER BY HOUR - AUGUST 31, 2013
[ °C ]   °F
Local TimeTemperatureDewpointHumidityBarometerVisibilityWind DirectionWind SpeedGust SpeedPrecipitationEventsConditions
1:54 AM80.1 °F75.0 °F85 %29.86 in10.0 miNE (50°)4.6 mphClear
2:54 AM80.1 °F75.0 °F85 %29.85 in10.0 miENE (70°)3.5 mphClear
3:54 AM78.1 °F75.0 °F90 %29.83 in10.0 miNNE (30°)3.5 mphClear
4:54 AM78.1 °F75.9 °F93 %29.83 in10.0 miNE (40°)4.6 mphClear
5:54 AM79.0 °F75.9 °F90 %29.85 in10.0 miNE (50°)5.8 mphClear
6:54 AM81.0 °F77.0 °F88 %29.86 in10.0 miCalmClear
7:54 AM84.9 °F75.9 °F74 %29.87 in10.0 miNE (50°)4.6 mphClear
8:41 AM84.2 °F75.2 °F74 %29.90 in10.0 miNE (50°)3.5 mphMostly Cloudy
8:54 AM86.0 °F77.0 °F74 %29.88 in10.0 miNE (50°)3.5 mphMostly Cloudy
9:08 AM87.8 °F77.0 °F70 %29.90 in10.0 miCalmMostly Cloudy
9:54 AM86.0 °F75.9 °F72 %29.87 in10.0 miCalmScattered Clouds
10:38 AM84.2 °F77.0 °F79 %29.88 in10.0 miNorth (350°)3.5 mphOvercast
10:54 AM86.0 °F78.1 °F77 %29.86 in10.0 miNNW (340°)5.8 mphOvercast
11:32 AM87.8 °F78.8 °F75 %29.87 in10.0 miCalmOvercast
11:54 AM88.0 °F75.0 °F65 %29.85 in10.0 miESE (110°)5.8 mphMostly Cloudy
12:54 PM88.0 °F75.0 °F65 %29.82 in10.0 miESE (110°)6.9 mphPartly Cloudy
1:54 PM89.1 °F75.9 °F65 %29.81 in10.0 miSE (130°)6.9 mphScattered Clouds
2:08 PM87.8 °F75.2 °F66 %29.83 in10.0 miESE (110°)5.8 mphMostly Cloudy
2:15 PM89.6 °F77.0 °F66 %29.83 in10.0 miSE (130°)8.1 mphScattered Clouds
2:54 PM88.0 °F75.0 °F65 %29.81 in10.0 miESE (120°)8.1 mphClear
3:54 PM88.0 °F73.0 °F61 %29.80 in10.0 miSE (130°)8.1 mphPartly Cloudy
4:54 PM88.0 °F73.0 °F61 %29.80 in10.0 miEast (100°)6.9 mphPartly Cloudy
5:54 PM86.0 °F73.9 °F67 %29.82 in10.0 miEast (100°)6.9 mphPartly Cloudy
6:54 PM84.0 °F75.0 °F74 %29.84 in10.0 miEast (90°)3.5 mphPartly Cloudy
7:54 PM82.9 °F75.0 °F77 %29.86 in10.0 miNE (40°)3.5 mphClear
8:54 PM82.0 °F75.0 °F79 %29.87 in10.0 miNE (40°)3.5 mphPartly Cloudy
9:54 PM82.9 °F75.9 °F79 %29.88 in10.0 miNE (40°)3.5 mphPartly Cloudy
10:54 PM82.0 °F75.9 °F82 %29.88 in10.0 miNNE (30°)3.5 mphClear
11:54 PM81.0 °F75.0 °F82 %29.86 in10.0 miNE (40°)3.5 mphPartly Cloudy
Hourly data recorded from PGUM, located miles away from Agat, Guam







STORIES FROM OUR PARTNERS